| time (UTC) | temp F | wind direction | speed knots | gust knots | rain 1hr in | rain 24hr in | rain mn in | humidity % | barometer mb |
| 20260505092955 | 65 | 49 | 0.0 | 2.6 | 0.00 | 0.00 | 0.00 | 66 | 1007.6 |
| 20260505092453 | 64 | 24 | 1.7 | 1.7 | 0.00 | 0.00 | 0.00 | 66 | 1006.9 |
| 20260505091950 | 65 | 120 | 0.0 | 4.3 | 0.00 | 0.00 | 0.00 | 66 | 1006.8 |
| 20260505091448 | 65 | 258 | 0.0 | 2.6 | 0.00 | 0.00 | 0.00 | 66 | 1006.3 |
| 20260505090946 | 64 | 166 | 0.0 | 4.3 | 0.00 | 0.00 | 0.00 | 65 | 1006.2 |
| 20260505090444 | 64 | 18 | 0.9 | 2.6 | 0.00 | 0.00 | 0.00 | 66 | 1006.2 |
| 20260505085940 | 65 | 151 | 2.6 | 6.1 | 0.00 | 0.00 | 0.00 | 64 | 1006.0 |
| 20260505085438 | 64 | 176 | 1.7 | 4.3 | 0.00 | 0.00 | 0.00 | 65 | 1006.0 |
| 20260505084936 | 64 | 120 | 0.0 | 2.6 | 0.00 | 0.00 | 0.00 | 65 | 1006.1 |
| 20260505084435 | 64 | 180 | 0.0 | 4.3 | 0.00 | 0.00 | 0.00 | 65 | 1005.9 |
| 20260505083932 | 64 | 173 | 0.0 | 5.2 | 0.00 | 0.00 | 0.00 | 65 | 1005.7 |
| 20260505083429 | 65 | 105 | 0.9 | 5.2 | 0.00 | 0.00 | 0.00 | 64 | 1006.0 |
| 20260505082925 | 65 | 197 | 4.3 | 6.1 | 0.00 | 0.00 | 0.00 | 63 | 1005.7 |
| 20260505082421 | 65 | 177 | 1.7 | 8.7 | 0.00 | 0.00 | 0.00 | 64 | 1005.7 |
| 20260505081918 | 65 | 166 | 2.6 | 7.8 | 0.00 | 0.00 | 0.00 | 63 | 1005.6 |
| 20260505081415 | 65 | 225 | 2.6 | 5.2 | 0.00 | 0.00 | 0.00 | 63 | 1005.5 |
| 20260505080912 | 65 | 180 | 0.0 | 3.5 | 0.00 | 0.00 | 0.00 | 65 | 1005.6 |
| 20260505080408 | 65 | 199 | 1.7 | 3.5 | 0.00 | 0.00 | 0.00 | 64 | 1005.5 |
| 20260505075903 | 65 | 192 | 10.4 | 10.4 | 0.00 | 0.00 | 0.00 | 63 | 1005.5 |
| 20260505075400 | 65 | 127 | 3.5 | 5.2 | 0.00 | 0.00 | 0.00 | 63 | 1005.2 |
| 20260505074857 | 66 | 186 | 2.6 | 6.1 | 0.00 | 0.00 | 0.00 | 63 | 1005.5 |
| 20260505074349 | 65 | 209 | 0.9 | 3.5 | 0.00 | 0.00 | 0.00 | 63 | 1005.3 |
| 20260505073846 | 65 | 194 | 2.6 | 6.1 | 0.00 | 0.00 | 0.00 | 62 | 1005.7 |
| 20260505073344 | 66 | 201 | 1.7 | 4.3 | 0.00 | 0.00 | 0.00 | 62 | 1005.5 |
| 20260505072841 | 66 | 180 | 1.7 | 3.5 | 0.00 | 0.00 | 0.00 | 62 | 1005.3 |
| 20260505072337 | 66 | 150 | 3.5 | 6.1 | 0.00 | 0.00 | 0.00 | 63 | 1005.5 |
| 20260505071833 | 66 | 185 | 1.7 | 4.3 | 0.00 | 0.00 | 0.00 | 62 | 1005.2 |
| 20260505071329 | 66 | 198 | 2.6 | 2.6 | 0.00 | 0.00 | 0.00 | 63 | 1005.5 |
| 20260505070828 | 66 | 120 | 1.7 | 3.5 | 0.00 | 0.00 | 0.00 | 62 | 1005.4 |
| 20260505070324 | 66 | 261 | 0.0 | 4.3 | 0.00 | 0.00 | 0.00 | 61 | 1005.6 |
| 20260505065819 | 66 | 174 | 2.6 | 4.3 | 0.00 | 0.00 | 0.00 | 61 | 1005.3 |
| 20260505065316 | 66 | 200 | 0.9 | 3.5 | 0.00 | 0.00 | 0.00 | 62 | 1005.4 |
| 20260505064813 | 66 | 190 | 4.3 | 4.3 | 0.00 | 0.00 | 0.00 | 61 | 1005.3 |
| 20260505064310 | 67 | 193 | 5.2 | 5.2 | 0.00 | 0.00 | 0.00 | 60 | 1005.4 |
| 20260505063809 | 67 | 199 | 1.7 | 9.6 | 0.00 | 0.00 | 0.00 | 60 | 1005.3 |
| 20260505063304 | 67 | 41 | 0.0 | 6.1 | 0.00 | 0.00 | 0.00 | 60 | 1005.5 |
| 20260505062800 | 67 | 184 | 0.0 | 5.2 | 0.00 | 0.00 | 0.00 | 60 | 1005.1 |
| 20260505062258 | 67 | 79 | 1.7 | 7.8 | 0.00 | 0.00 | 0.00 | 60 | 1005.2 |
| 20260505061754 | 67 | 106 | 0.0 | 7.8 | 0.00 | 0.00 | 0.00 | 59 | 1005.0 |
| 20260505061252 | 67 | 213 | 3.5 | 5.2 | 0.00 | 0.00 | 0.00 | 60 | 1005.3 |
| 20260505060749 | 67 | 213 | 3.5 | 8.7 | 0.00 | 0.00 | 0.00 | 59 | 1005.0 |
| 20260505060247 | 67 | 181 | 4.3 | 5.2 | 0.00 | 0.00 | 0.00 | 61 | 1005.1 |
| 20260505055742 | 67 | 221 | 1.7 | 7.8 | 0.00 | 0.00 | 0.00 | 60 | 1005.0 |
| 20260505055238 | 67 | 152 | 5.2 | 11.3 | 0.00 | 0.00 | 0.00 | 60 | 1005.2 |
| 20260505054736 | 67 | 149 | 2.6 | 9.6 | 0.00 | 0.00 | 0.00 | 60 | 1004.9 |
| 20260505054234 | 66 | 188 | 0.0 | 6.1 | 0.00 | 0.00 | 0.00 | 61 | 1005.0 |
| 20260505053732 | 66 | 175 | 2.6 | 10.4 | 0.00 | 0.00 | 0.00 | 61 | 1005.0 |
| 20260505053227 | 66 | 199 | 5.2 | 7.8 | 0.00 | 0.00 | 0.00 | 61 | 1004.9 |
| 20260505052725 | 66 | 194 | 0.9 | 5.2 | 0.00 | 0.00 | 0.00 | 61 | 1004.9 |
| 20260505052222 | 67 | 210 | 1.7 | 7.8 | 0.00 | 0.00 | 0.00 | 61 | 1005.0 |
| 20260505051719 | 67 | 194 | 5.2 | 13.0 | 0.00 | 0.00 | 0.00 | 59 | 1004.9 |
| 20260505051217 | 67 | 180 | 1.7 | 7.8 | 0.00 | 0.00 | 0.00 | 60 | 1004.9 |
| 20260505050715 | 67 | 225 | 1.7 | 3.5 | 0.00 | 0.00 | 0.00 | 61 | 1005.0 |
| 20260505050213 | 67 | 164 | 0.0 | 5.2 | 0.00 | 0.00 | 0.00 | 60 | 1004.9 |
| 20260505041642 | 68 | 220 | 2.6 | 7.8 | 0.00 | 0.00 | 0.00 | 59 | 1005.4 |
| 20260505041135 | 68 | 174 | 2.6 | 6.1 | 0.00 | 0.00 | 0.00 | 60 | 1005.4 |
| 20260505040631 | 67 | 164 | 3.5 | 3.5 | 0.00 | 0.00 | 0.00 | 60 | 1005.4 |
| 20260505040129 | 67 | 215 | 0.9 | 2.6 | 0.00 | 0.00 | 0.00 | 61 | 1005.6 |
| 20260505035625 | 67 | 222 | 2.6 | 4.3 | 0.00 | 0.11 | 0.11 | 60 | 1005.6 |
| 20260505035121 | 68 | 177 | 1.7 | 2.6 | 0.00 | 0.11 | 0.11 | 60 | 1005.4 |
| 20260505034618 | 68 | 188 | 0.0 | 4.3 | 0.00 | 0.11 | 0.11 | 60 | 1005.6 |
| 20260505034115 | 67 | 90 | 0.0 | 2.6 | 0.00 | 0.11 | 0.11 | 62 | 1005.6 |
| 20260505033611 | 67 | 188 | 3.5 | 4.3 | 0.00 | 0.11 | 0.11 | 60 | 1005.4 |
| 20260505033110 | 67 | 90 | 0.9 | 3.5 | 0.00 | 0.11 | 0.11 | 61 | 1005.5 |
| 20260505032607 | 67 | 191 | 1.7 | 2.6 | 0.00 | 0.11 | 0.11 | 62 | 1005.6 |
| 20260505032104 | 67 | 198 | 1.7 | 4.3 | 0.00 | 0.11 | 0.11 | 62 | 1005.3 |
| 20260505031601 | 68 | 109 | 2.6 | 4.3 | 0.00 | 0.11 | 0.11 | 62 | 1005.3 |
| 20260505031057 | 68 | 197 | 1.7 | 4.3 | 0.00 | 0.11 | 0.11 | 61 | 1005.2 |
| 20260505030554 | 67 | 173 | 2.6 | 4.3 | 0.00 | 0.11 | 0.11 | 61 | 1005.1 |
| 20260505030050 | 67 | 166 | 2.6 | 3.5 | 0.00 | 0.11 | 0.11 | 62 | 1005.0 |
| 20260505025546 | 67 | 169 | 1.7 | 5.2 | 0.00 | 0.11 | 0.11 | 62 | 1004.9 |
| 20260505025045 | 67 | 77 | 0.0 | 2.6 | 0.00 | 0.11 | 0.11 | 62 | 1005.0 |
| 20260505024542 | 68 | 103 | 0.0 | 4.3 | 0.00 | 0.11 | 0.11 | 62 | 1005.0 |
| 20260505024039 | 68 | 197 | 3.5 | 3.5 | 0.00 | 0.11 | 0.11 | 63 | 1005.1 |
| 20260505023536 | 67 | 180 | 0.9 | 4.3 | 0.00 | 0.11 | 0.11 | 62 | 1004.9 |
| 20260505023034 | 67 | 158 | 2.6 | 3.5 | 0.00 | 0.11 | 0.11 | 63 | 1004.9 |
| 20260505022531 | 67 | 154 | 0.0 | 4.3 | 0.00 | 0.11 | 0.11 | 63 | 1004.8 |
| 20260505022028 | 67 | 180 | 0.0 | 1.7 | 0.00 | 0.11 | 0.11 | 64 | 1004.6 |
| 20260505021524 | 66 | 172 | 0.0 | 2.6 | 0.00 | 0.11 | 0.11 | 66 | 1004.8 |
| 20260505021021 | 67 | 103 | 0.0 | 1.7 | 0.00 | 0.11 | 0.11 | 64 | 1004.5 |
| 20260505020515 | 67 | 194 | 0.9 | 2.6 | 0.00 | 0.11 | 0.11 | 63 | 1004.3 |
| 20260505020013 | 67 | 173 | 0.9 | 2.6 | 0.00 | 0.11 | 0.11 | 63 | 1004.4 |
| 20260505015510 | 68 | 143 | 1.7 | 1.7 | 0.00 | 0.11 | 0.11 | 62 | 1004.3 |
| 20260505015007 | 68 | 135 | 0.0 | 2.6 | 0.00 | 0.11 | 0.11 | 61 | 1004.2 |
| 20260505014503 | 69 | 165 | 0.9 | 2.6 | 0.00 | 0.11 | 0.11 | 59 | 1003.8 |
| 20260505014001 | 69 | 170 | 1.7 | 2.6 | 0.00 | 0.11 | 0.11 | 58 | 1003.9 |
| 20260505013457 | 70 | 170 | 2.6 | 6.1 | 0.00 | 0.11 | 0.11 | 57 | 1003.8 |
| 20260505012955 | 69 | 182 | 2.6 | 2.6 | 0.00 | 0.11 | 0.11 | 57 | 1003.7 |
| 20260505012453 | 70 | 156 | 1.7 | 3.5 | 0.00 | 0.11 | 0.11 | 56 | 1003.4 |
| 20260505011949 | 69 | 200 | 2.6 | 3.5 | 0.00 | 0.11 | 0.11 | 58 | 1003.7 |
| 20260505011445 | 70 | 174 | 0.0 | 4.3 | 0.00 | 0.11 | 0.11 | 57 | 1003.7 |
| 20260505010942 | 70 | 180 | 0.0 | 6.1 | 0.00 | 0.11 | 0.11 | 57 | 1003.8 |
| 20260505010438 | 70 | 172 | 0.0 | 3.5 | 0.00 | 0.11 | 0.11 | 57 | 1003.7 |
| 20260505005934 | 71 | 150 | 1.7 | 3.5 | 0.00 | 0.11 | 0.11 | 56 | 1003.9 |
| 20260505005431 | 71 | 81 | 0.0 | 3.5 | 0.00 | 0.11 | 0.11 | 55 | 1003.9 |
| 20260505004929 | 71 | 166 | 0.9 | 3.5 | 0.00 | 0.11 | 0.11 | 56 | 1004.0 |
| 20260505004425 | 71 | 180 | 0.0 | 4.3 | 0.00 | 0.11 | 0.11 | 55 | 1003.6 |
| 20260505003922 | 71 | 158 | 4.3 | 5.2 | 0.00 | 0.11 | 0.11 | 54 | 1003.7 |
| 20260505003419 | 71 | 198 | 0.9 | 2.6 | 0.00 | 0.11 | 0.11 | 55 | 1003.8 |
| 20260505002915 | 72 | 180 | 0.0 | 2.6 | 0.00 | 0.11 | 0.11 | 55 | 1003.7 |
| 20260505002412 | 72 | 150 | 1.7 | 3.5 | 0.00 | 0.11 | 0.11 | 54 | 1004.0 |
| 20260505001910 | 72 | 157 | 0.0 | 3.5 | 0.00 | 0.11 | 0.11 | 55 | 1004.1 |
| 20260505001408 | 72 | 182 | 2.6 | 4.3 | 0.00 | 0.11 | 0.11 | 53 | 1004.1 |
| 20260505000905 | 72 | 155 | 2.6 | 2.6 | 0.00 | 0.11 | 0.11 | 55 | 1004.0 |
| 20260505000405 | 72 | 227 | 2.6 | 2.6 | 0.00 | 0.11 | 0.11 | 53 | 1003.9 |
| 20260504235859 | 72 | 156 | 0.0 | 2.6 | 0.00 | 0.11 | 0.11 | 55 | 1004.1 |
| 20260504235356 | 73 | 180 | 1.7 | 2.6 | 0.00 | 0.11 | 0.11 | 55 | 1004.1 |
| 20260504234852 | 73 | 98 | 0.0 | 4.3 | 0.00 | 0.11 | 0.11 | 54 | 1003.9 |
| 20260504234350 | 73 | 180 | 0.0 | 2.6 | 0.00 | 0.11 | 0.11 | 54 | 1004.1 |
| 20260504233846 | 73 | 229 | 1.7 | 3.5 | 0.00 | 0.11 | 0.11 | 53 | 1003.9 |
| 20260504233342 | 73 | 180 | 3.5 | 5.2 | 0.00 | 0.11 | 0.11 | 53 | 1004.2 |
| 20260504232839 | 74 | 270 | 1.7 | 5.2 | 0.00 | 0.11 | 0.11 | 51 | 1004.2 |
| 20260504232336 | 74 | 80 | 0.0 | 6.1 | 0.00 | 0.11 | 0.11 | 52 | 1004.2 |
| 20260504231833 | 74 | 185 | 4.3 | 7.0 | 0.00 | 0.11 | 0.11 | 50 | 1004.3 |
| 20260504231329 | 74 | 203 | 0.0 | 5.2 | 0.00 | 0.11 | 0.11 | 50 | 1004.5 |
| 20260504230825 | 75 | 180 | 0.0 | 6.1 | 0.00 | 0.11 | 0.11 | 50 | 1004.4 |
| 20260504230324 | 75 | 115 | 1.7 | 3.5 | 0.00 | 0.11 | 0.11 | 51 | 1004.6 |
| 20260504225822 | 75 | 161 | 1.7 | 4.3 | 0.00 | 0.11 | 0.11 | 50 | 1004.7 |
| 20260504225318 | 76 | 237 | 3.5 | 6.1 | 0.00 | 0.11 | 0.11 | 50 | 1005.0 |
| 20260504224816 | 77 | 154 | 1.7 | 3.5 | 0.00 | 0.11 | 0.11 | 50 | 1004.9 |
| 20260504224313 | 76 | 57 | 0.0 | 2.6 | 0.00 | 0.11 | 0.11 | 50 | 1005.0 |
| 20260504223809 | 76 | 187 | 1.7 | 2.6 | 0.00 | 0.11 | 0.11 | 53 | 1005.2 |
| 20260504223305 | 76 | 212 | 2.6 | 8.7 | 0.00 | 0.11 | 0.11 | 52 | 1005.1 |
| 20260504222802 | 76 | 200 | 0.9 | 5.2 | 0.00 | 0.11 | 0.11 | 53 | 1005.1 |
| 20260504222258 | 76 | 170 | 4.3 | 4.3 | 0.00 | 0.11 | 0.11 | 53 | 1005.2 |
| 20260504221756 | 76 | 212 | 1.7 | 5.2 | 0.00 | 0.11 | 0.11 | 52 | 1005.1 |
| 20260504221253 | 76 | 103 | 0.9 | 5.2 | 0.00 | 0.11 | 0.11 | 52 | 1005.4 |
| 20260504220750 | 77 | 209 | 1.7 | 6.1 | 0.00 | 0.11 | 0.11 | 53 | 1005.2 |
| 20260504220247 | 77 | 185 | 2.6 | 4.3 | 0.00 | 0.11 | 0.11 | 51 | 1005.4 |
| 20260504215744 | 77 | 130 | 2.6 | 5.2 | 0.00 | 0.11 | 0.11 | 52 | 1005.4 |
| 20260504215240 | 76 | 229 | 2.6 | 2.6 | 0.00 | 0.11 | 0.11 | 51 | 1005.4 |
| 20260504214736 | 76 | 108 | 1.7 | 5.2 | 0.00 | 0.11 | 0.11 | 52 | 1005.2 |
| 20260504214233 | 76 | 212 | 3.5 | 4.3 | 0.00 | 0.11 | 0.11 | 52 | 1005.2 |
| 20260504213730 | 76 | 185 | 0.9 | 2.6 | 0.00 | 0.11 | 0.11 | 53 | 1005.5 |
| 20260504213226 | 76 | 152 | 0.0 | 3.5 | 0.00 | 0.11 | 0.11 | 51 | 1005.5 |
| 20260504212723 | 76 | 257 | 0.0 | 3.5 | 0.00 | 0.11 | 0.11 | 51 | 1005.6 |
| 20260504212220 | 76 | 233 | 1.7 | 4.3 | 0.00 | 0.11 | 0.11 | 51 | 1005.6 |
| 20260504211717 | 76 | 253 | 1.7 | 5.2 | 0.00 | 0.11 | 0.11 | 49 | 1005.5 |
| 20260504211213 | 77 | 107 | 3.5 | 7.8 | 0.00 | 0.11 | 0.11 | 49 | 1005.7 |
| 20260504210711 | 77 | 112 | 0.0 | 7.0 | 0.00 | 0.11 | 0.11 | 50 | 1005.7 |
| 20260504210208 | 77 | 114 | 1.7 | 9.6 | 0.00 | 0.11 | 0.11 | 46 | 1005.7 |
| 20260504205705 | 77 | 0 | 0.0 | 3.5 | 0.00 | 0.11 | 0.11 | 49 | 1005.9 |
| 20260504205202 | 76 | 289 | 0.0 | 5.2 | 0.00 | 0.11 | 0.11 | 48 | 1005.9 |
| 20260504204701 | 76 | 142 | 1.7 | 4.3 | 0.00 | 0.11 | 0.11 | 49 | 1005.8 |
| 20260504204159 | 77 | 354 | 2.6 | 4.3 | 0.00 | 0.11 | 0.11 | 49 | 1005.8 |
| 20260504203657 | 78 | 354 | 0.9 | 5.2 | 0.00 | 0.11 | 0.11 | 47 | 1005.9 |
| 20260504203154 | 78 | 150 | 1.7 | 7.8 | 0.00 | 0.11 | 0.11 | 48 | 1005.7 |
| 20260504202649 | 78 | 226 | 4.3 | 11.3 | 0.00 | 0.11 | 0.11 | 46 | 1005.5 |
| 20260504202146 | 78 | 295 | 0.0 | 7.8 | 0.00 | 0.11 | 0.11 | 49 | 1005.7 |
| 20260504201643 | 78 | 195 | 0.9 | 3.5 | 0.00 | 0.11 | 0.11 | 49 | 1005.7 |
| 20260504201141 | 79 | 157 | 0.0 | 1.7 | 0.00 | 0.11 | 0.11 | 52 | 1005.7 |
| 20260504200637 | 78 | 28 | 1.7 | 4.3 | 0.00 | 0.11 | 0.11 | 48 | 1005.8 |
| 20260504200134 | 78 | 285 | 0.0 | 7.8 | 0.00 | 0.11 | 0.11 | 48 | 1005.8 |
| 20260504195630 | 78 | 191 | 2.6 | 9.6 | 0.00 | 0.11 | 0.11 | 49 | 1006.0 |
| 20260504195126 | 79 | 214 | 1.7 | 10.4 | 0.00 | 0.11 | 0.11 | 48 | 1005.9 |
| 20260504194623 | 78 | 188 | 0.0 | 6.1 | 0.00 | 0.11 | 0.11 | 50 | 1006.0 |
| 20260504194119 | 79 | 218 | 1.7 | 2.6 | 0.00 | 0.11 | 0.11 | 49 | 1006.1 |
| 20260504193615 | 79 | 194 | 10.4 | 10.4 | 0.00 | 0.11 | 0.11 | 47 | 1006.2 |
| 20260504193114 | 78 | 90 | 0.0 | 4.3 | 0.00 | 0.11 | 0.11 | 48 | 1006.1 |
| 20260504192612 | 79 | 190 | 2.6 | 7.8 | 0.00 | 0.11 | 0.11 | 50 | 1006.5 |
| 20260504192110 | 79 | 348 | 0.9 | 7.0 | 0.00 | 0.11 | 0.11 | 48 | 1006.3 |
| 20260504191608 | 79 | 112 | 3.5 | 6.1 | 0.00 | 0.11 | 0.11 | 50 | 1006.4 |
| 20260504191104 | 80 | 59 | 1.7 | 2.6 | 0.00 | 0.11 | 0.11 | 51 | 1006.7 |
| 20260504190600 | 78 | 199 | 1.7 | 8.7 | 0.00 | 0.11 | 0.11 | 48 | 1006.8 |
| 20260504190056 | 77 | 264 | 0.0 | 2.6 | 0.00 | 0.11 | 0.11 | 52 | 1006.8 |
| 20260504185554 | 78 | 295 | 1.7 | 4.3 | 0.00 | 0.11 | 0.11 | 50 | 1006.9 |
| 20260504185050 | 78 | 206 | 0.0 | 7.0 | 0.00 | 0.11 | 0.11 | 50 | 1007.1 |
| 20260504184545 | 78 | 276 | 0.0 | 2.6 | 0.00 | 0.11 | 0.11 | 51 | 1006.9 |
| 20260504184041 | 77 | 188 | 2.6 | 7.8 | 0.00 | 0.11 | 0.11 | 50 | 1007.4 |
| 20260504183538 | 77 | 283 | 1.7 | 3.5 | 0.00 | 0.11 | 0.11 | 54 | 1007.3 |
| 20260504183036 | 77 | 350 | 2.6 | 5.2 | 0.00 | 0.11 | 0.11 | 51 | 1007.3 |
| 20260504182533 | 77 | 81 | 3.5 | 3.5 | 0.00 | 0.11 | 0.11 | 55 | 1007.2 |
| 20260504182030 | 77 | 270 | 1.7 | 5.2 | 0.00 | 0.11 | 0.11 | 55 | 1007.0 |
| 20260504181527 | 76 | 62 | 3.5 | 7.8 | 0.00 | 0.11 | 0.11 | 55 | 1006.8 |
| 20260504181026 | 75 | 155 | 2.6 | 7.0 | 0.00 | 0.11 | 0.11 | 57 | 1006.9 |
| 20260504180524 | 76 | 134 | 4.3 | 4.3 | 0.00 | 0.11 | 0.11 | 54 | 1007.0 |
| 20260504180023 | 77 | 270 | 0.9 | 7.8 | 0.00 | 0.11 | 0.11 | 52 | 1006.9 |
| 20260504175519 | 76 | 198 | 3.5 | 6.1 | 0.00 | 0.11 | 0.11 | 56 | 1006.7 |
| 20260504175016 | 75 | 22 | 2.6 | 5.2 | 0.00 | 0.11 | 0.11 | 56 | 1006.8 |
| 20260504174514 | 75 | 197 | 2.6 | 6.1 | 0.00 | 0.11 | 0.11 | 55 | 1006.8 |
| 20260504174011 | 76 | 193 | 2.6 | 7.8 | 0.00 | 0.11 | 0.11 | 55 | 1007.1 |
| 20260504173508 | 75 | 180 | 1.7 | 7.8 | 0.00 | 0.11 | 0.11 | 55 | 1006.9 |
| 20260504173005 | 75 | 203 | 0.0 | 6.1 | 0.00 | 0.11 | 0.11 | 55 | 1006.9 |
| 20260504172501 | 76 | 74 | 0.9 | 2.6 | 0.00 | 0.11 | 0.11 | 56 | 1007.0 |
| 20260504171957 | 75 | 225 | 0.0 | 3.5 | 0.00 | 0.11 | 0.11 | 59 | 1006.8 |
| 20260504171455 | 74 | 172 | 3.5 | 5.2 | 0.00 | 0.11 | 0.11 | 57 | 1007.3 |
| 20260504170951 | 74 | 187 | 4.3 | 5.2 | 0.00 | 0.11 | 0.11 | 57 | 1007.4 |
| 20260504170447 | 73 | 306 | 0.0 | 4.3 | 0.00 | 0.11 | 0.11 | 58 | 1007.2 |
| 20260504160408 | 69 | 157 | 0.9 | 3.5 | 0.00 | 0.11 | 0.11 | 69 | 1007.9 |
| 20260504150832 | 63 | 195 | 3.5 | 12.2 | 0.00 | 0.11 | 0.11 | 72 | 1008.1 |
| 20260504150328 | 63 | 162 | 5.2 | 7.8 | 0.00 | 0.11 | 0.11 | 71 | 1008.1 |
| 20260504141258 | 60 | 180 | 7.0 | 11.3 | 0.00 | 0.11 | 0.11 | 80 | 1008.3 |
| 20260504140755 | 59 | 34 | 1.7 | 4.3 | 0.00 | 0.11 | 0.11 | 84 | 1008.1 |
| 20260504140250 | 58 | 81 | 0.0 | 7.0 | 0.00 | 0.11 | 0.11 | 86 | 1008.0 |
| 20260504130719 | 54 | 201 | 2.6 | 2.6 | 0.00 | 0.11 | 0.11 | 96 | 1007.6 |
| 20260504130215 | 53 | 172 | 2.6 | 5.2 | 0.00 | 0.11 | 0.11 | 95 | 1007.4 |
| 20260504120139 | 55 | 209 | 0.0 | 4.3 | 0.02 | 0.06 | 0.06 | 84 | 1009.0 |
| 20260504110606 | 55 | 217 | 1.7 | 7.0 | 0.00 | 0.06 | 0.06 | 77 | 1007.8 |
| 20260504100528 | 52 | 235 | 0.0 | 6.1 | 0.00 | 0.06 | 0.06 | 88 | 1008.1 |